When you browse on this site, cookies collect data to enhance your experience and personalize the content and advertising you see.
Visit our Privacy Policy to learn more. By continuing to use the site, you agree to this use of cookies and data.
  • In Hungary
  • List of Countries
  • For 7 days
  • Water Temperature
  • Weather Map
  • News
  • Weather Widgets
  • user-avatar
    Login

    Hourly Weather Voylovo

    Today, 19 January, Sunday

    Time Temperature Precipitation Wind Pressure Humidity
    00:00 -3°C° 0 mm 4 mps 752 mmHg 86%
    01:00 -2°C° 0 mm 3 mps 752 mmHg 87%
    02:00 -2°C° 0 mm 3 mps 753 mmHg 93%
    03:00 -2°C° 0 mm 3 mps 753 mmHg 93%
    04:00 -4°C° 0 mm 3 mps 753 mmHg 93%
    05:00 -4°C° 0 mm 3 mps 753 mmHg 93%
    06:00 -4°C° 0 mm 3 mps 753 mmHg 93%
    07:00 -4°C° 0 mm 3 mps 753 mmHg 92%
    08:00 -2°C° 0 mm 3 mps 754 mmHg 91%
    09:00 -2°C° 0 mm 3 mps 754 mmHg 90%
    10:00 -1°C° 0 mm 3 mps 754 mmHg 90%
    11:00 -1°C° 0 mm 3 mps 754 mmHg 89%
    12:00 -2°C° 0 mm 4 mps 754 mmHg 89%
    13:00 -2°C° 0 mm 4 mps 754 mmHg 89%
    14:00 -2°C° 0 mm 4 mps 755 mmHg 89%
    15:00 -2°C° 0 mm 4 mps 755 mmHg 88%
    16:00 -2°C° 0 mm 4 mps 755 mmHg 87%
    17:00 -2°C° 0 mm 4 mps 755 mmHg 86%
    18:00 -2°C° 0 mm 4 mps 755 mmHg 86%
    19:00 -2°C° 0 mm 4 mps 755 mmHg 87%
    20:00 -2°C° 0 mm 4 mps 755 mmHg 87%
    21:00 -2°C° 0 mm 4 mps 755 mmHg 87%
    22:00 -2°C° 0 mm 4 mps 755 mmHg 88%
    23:00 -2°C° 0 mm 4 mps 755 mmHg 89%

    Tomorrow, 20 January, Monday

    Time Temperature Precipitation Wind Pressure Humidity
    00:00 -1°C° 0 mm 4 mps 755 mmHg 89%
    01:00 -1°C° 0 mm 4 mps 755 mmHg 89%
    02:00 -1°C° 0 mm 4 mps 755 mmHg 90%
    03:00 -1°C° 0 mm 4 mps 755 mmHg 89%
    04:00 -1°C° 0 mm 5 mps 755 mmHg 89%
    05:00 -1°C° 0 mm 5 mps 755 mmHg 88%
    06:00 -1°C° 0 mm 5 mps 755 mmHg 88%
    07:00 -1°C° 0 mm 4 mps 755 mmHg 88%
    08:00 0°C° 0 mm 4 mps 755 mmHg 88%
    09:00 0°C° 0 mm 4 mps 755 mmHg 88%
    10:00 0°C° 0 mm 5 mps 755 mmHg 89%
    11:00 0°C° 0 mm 5 mps 755 mmHg 89%
    12:00 0°C° 0 mm 5 mps 755 mmHg 88%
    13:00 0°C° 0 mm 4 mps 755 mmHg 88%
    14:00 0°C° 0 mm 4 mps 755 mmHg 87%
    15:00 0°C° 0 mm 4 mps 754 mmHg 88%
    16:00 -1°C° 0 mm 4 mps 754 mmHg 90%
    17:00 -1°C° 0 mm 4 mps 753 mmHg 91%
    18:00 -1°C° 0 mm 4 mps 753 mmHg 88%
    19:00 -1°C° 0 mm 5 mps 753 mmHg 86%
    20:00 -1°C° 0 mm 5 mps 753 mmHg 83%
    21:00 -1°C° 0 mm 5 mps 752 mmHg 82%
    22:00 -1°C° 0 mm 5 mps 752 mmHg 82%
    23:00 -1°C° 0 mm 5 mps 751 mmHg 81%

    Day after tomorrow, 21 January, Tuesday

    Time Temperature Precipitation Wind Pressure Humidity
    00:00 -1°C° 0 mm 5 mps 750 mmHg 80%
    01:00 -1°C° 0 mm 5 mps 750 mmHg 79%
    02:00 -1°C° 0 mm 5 mps 749 mmHg 78%
    03:00 -1°C° 0 mm 5 mps 748 mmHg 81%
    04:00 -2°C° 0 mm 6 mps 747 mmHg 83%
    05:00 -2°C° 0 mm 6 mps 746 mmHg 85%
    06:00 -2°C° 0.2 mm 6 mps 746 mmHg 86%
    07:00 -1°C° 0.2 mm 6 mps 745 mmHg 87%
    08:00 -1°C° 0.2 mm 6 mps 744 mmHg 88%
    09:00 +1°C° 0.1 mm 6 mps 744 mmHg 89%
    10:00 +1°C° 0.1 mm 6 mps 743 mmHg 89%
    11:00 +2°C° 0.1 mm 5 mps 743 mmHg 89%
    12:00 +2°C° 0 mm 5 mps 742 mmHg 89%
    13:00 +2°C° 0 mm 5 mps 742 mmHg 89%
    14:00 +3°C° 0 mm 5 mps 741 mmHg 89%
    15:00 +3°C° 0.1 mm 5 mps 740 mmHg 90%
    16:00 +3°C° 0.1 mm 5 mps 739 mmHg 91%
    17:00 +2°C° 0.1 mm 5 mps 739 mmHg 92%
    18:00 +3°C° 0.8 mm 5 mps 738 mmHg 92%
    19:00 +3°C° 0.8 mm 5 mps 738 mmHg 92%
    20:00 +3°C° 0.8 mm 6 mps 737 mmHg 92%
    21:00 +2°C° 0.1 mm 6 mps 737 mmHg 89%
    22:00 +2°C° 0.1 mm 6 mps 737 mmHg 87%
    23:00 0°C° 0.1 mm 7 mps 737 mmHg 84%

    22 January, Wednesday

    Time Temperature Precipitation Wind Pressure Humidity
    00:00 -1°C° 0 mm 6 mps 738 mmHg 82%
    01:00 -1°C° 0 mm 5 mps 738 mmHg 81%
    02:00 -2°C° 0 mm 4 mps 739 mmHg 79%
    03:00 -2°C° 0 mm 4 mps 738 mmHg 78%
    04:00 -2°C° 0 mm 5 mps 738 mmHg 77%
    05:00 -2°C° 0 mm 5 mps 738 mmHg 76%
    06:00 -2°C° 0 mm 5 mps 737 mmHg 77%
    07:00 -4°C° 0 mm 5 mps 737 mmHg 79%
    08:00 -4°C° 0 mm 5 mps 737 mmHg 80%
    09:00 -2°C° 0 mm 5 mps 736 mmHg 79%
    10:00 -3°C° 0 mm 6 mps 736 mmHg 79%
    11:00 -3°C° 0 mm 6 mps 736 mmHg 78%
    12:00 -3°C° 0.1 mm 6 mps 735 mmHg 76%
    13:00 -2°C° 0.1 mm 5 mps 735 mmHg 74%
    14:00 -2°C° 0.1 mm 5 mps 735 mmHg 72%
    15:00 -2°C° 0 mm 5 mps 735 mmHg 74%
    16:00 -3°C° 0 mm 4 mps 735 mmHg 75%
    17:00 -3°C° 0 mm 4 mps 735 mmHg 76%
    18:00 -4°C° 0 mm 4 mps 736 mmHg 77%
    19:00 -4°C° 0 mm 4 mps 736 mmHg 77%
    20:00 -4°C° 0 mm 4 mps 736 mmHg 78%
    21:00 -4°C° 0 mm 4 mps 737 mmHg 78%
    22:00 -4°C° 0 mm 4 mps 737 mmHg 78%
    23:00 -4°C° 0 mm 4 mps 737 mmHg 78%

    23 January, Thursday

    Time Temperature Precipitation Wind Pressure Humidity
    00:00 -5°C° 0.1 mm 5 mps 738 mmHg 77%
    01:00 -5°C° 0.1 mm 5 mps 738 mmHg 76%
    02:00 -5°C° 0.1 mm 6 mps 739 mmHg 75%
    03:00 -6°C° 0 mm 6 mps 739 mmHg 71%
    04:00 -6°C° 0 mm 6 mps 740 mmHg 66%
    05:00 -8°C° 0 mm 6 mps 740 mmHg 62%
    06:00 -8°C° 0 mm 6 mps 741 mmHg 61%
    07:00 -8°C° 0 mm 6 mps 741 mmHg 59%
    08:00 -8°C° 0 mm 6 mps 742 mmHg 58%
    09:00 -8°C° 0 mm 6 mps 742 mmHg 57%
    10:00 -8°C° 0 mm 7 mps 743 mmHg 57%
    11:00 -7°C° 0 mm 8 mps 743 mmHg 56%
    12:00 -7°C° 0 mm 7 mps 743 mmHg 57%
    13:00 -7°C° 0 mm 7 mps 744 mmHg 58%
    14:00 -7°C° 0 mm 7 mps 744 mmHg 59%
    15:00 -6°C° 0 mm 6 mps 745 mmHg 59%
    16:00 -7°C° 0 mm 5 mps 745 mmHg 59%
    17:00 -7°C° 0 mm 5 mps 746 mmHg 59%
    18:00 -7°C° 0 mm 4 mps 746 mmHg 60%
    19:00 -7°C° 0 mm 3 mps 746 mmHg 61%
    20:00 -7°C° 0 mm 3 mps 746 mmHg 63%
    21:00 -7°C° 0 mm 3 mps 747 mmHg 63%
    22:00 -7°C° 0 mm 3 mps 747 mmHg 64%
    23:00 -8°C° 0 mm 3 mps 747 mmHg 65%

    24 January, Friday

    Time Temperature Precipitation Wind Pressure Humidity
    00:00 -7°C° 0 mm 3 mps 746 mmHg 68%
    01:00 -7°C° 0 mm 3 mps 746 mmHg 72%
    02:00 -6°C° 0 mm 3 mps 745 mmHg 75%
    03:00 -7°C° 0.2 mm 4 mps 744 mmHg 81%
    04:00 -7°C° 0.2 mm 4 mps 743 mmHg 87%
    05:00 -7°C° 0.2 mm 5 mps 742 mmHg 93%
    06:00 -6°C° 0.5 mm 5 mps 741 mmHg 93%
    07:00 -5°C° 0.5 mm 5 mps 740 mmHg 93%
    08:00 -5°C° 0.5 mm 6 mps 739 mmHg 93%
    09:00 -4°C° 0.1 mm 5 mps 738 mmHg 92%
    10:00 -1°C° 0.1 mm 5 mps 737 mmHg 92%
    11:00 0°C° 0.1 mm 4 mps 737 mmHg 91%
    12:00 0°C° 0 mm 5 mps 737 mmHg 88%
    13:00 +1°C° 0 mm 5 mps 737 mmHg 85%
    14:00 +1°C° 0 mm 5 mps 737 mmHg 82%
    15:00 0°C° 0 mm 5 mps 737 mmHg 80%
    16:00 -1°C° 0 mm 5 mps 738 mmHg 78%
    17:00 -2°C° 0 mm 5 mps 738 mmHg 76%
    18:00 -2°C° 0 mm 5 mps 739 mmHg 74%
    19:00 -4°C° 0 mm 5 mps 739 mmHg 73%
    20:00 -4°C° 0 mm 5 mps 740 mmHg 71%
    21:00 -4°C° 0 mm 5 mps 740 mmHg 72%
    22:00 -4°C° 0 mm 5 mps 740 mmHg 72%
    23:00 -4°C° 0 mm 5 mps 741 mmHg 73%
    Show more